RH
16 15 14 13 12 11 10 10 10 9 9 10 10 10 11 12 12 13 13 14 14 15 16 17 17 18 18 18 18 18 17 17 16 16 16 16 15 15 14 14 13 12
19 18 18 17 16 16 15 14 14 13 12 11 11 11 10 11 12 12 12 13 14 14 14 15 15 16 17 18 19 20 20 20 20 20 20 20 20 19 19 19 19 18
24 23 22 21 21 21 20 19 19 19 18 18 17 16 15 13 12 12 12 13 14 13 13 14 15 15 15 16 17 17 19 20 21 22 22 23 23 23 23 23 23 23
28 28 27 26 26 26 26 25 25 25 25 25 24 24 24 23 21 19 16 15 16 16 14 13 14 15 15 15 16 16 17 18 19 20 21 23 24 25 25 26 26 26
31 31 31 30 30 30 30 30 30 30 30 30 29 29 30 32 33 32 29 24 23 23 20 17 15 14 15 15 16 16 17 17 18 19 20 22 24 26 27 28 29 29
33 32 33 33 33 32 32 33 33 33 33 33 33 33 33 35 37 40 41 38 35 33 29 25 21 19 18 18 17 17 17 17 18 19 20 21 24 27 29 30 32 34
34 34 34 34 33 33 33 33 34 34 35 35 35 35 35 36 38 41 45 49 50 48 42 34 30 28 27 26 25 24 22 21 22 22 23 24 25 28 31 33 34 36
36 36 36 36 36 35 34 34 34 34 34 34 35 36 36 37 39 42 45 50 55 59 57 50 43 37 34 33 35 37 36 32 30 30 30 31 31 32 35 37 38 39
37 37 38 38 38 37 37 36 35 35 35 35 34 35 36 37 39 40 43 46 51 56 60 61 57 51 47 45 46 50 51 48 44 41 39 38 37 37 39 41 42 44
38 38 38 38 39 38 38 37 37 37 36 36 36 36 37 38 39 41 42 44 46 50 54 59 62 62 61 60 60 60 61 60 58 54 49 45 44 44 45 46 48 51
38 38 38 39 38 38 38 38 38 38 38 38 38 38 38 39 39 41 42 43 46 48 52 56 60 63 66 68 69 68 68 69 69 67 61 56 53 53 54 56 59 60
38 38 39 39 38 38 37 38 38 39 39 40 40 41 41 41 41 42 43 44 46 49 51 53 55 60 64 67 69 70 71 74 76 76 72 68 64 64 65 66 67 66
37 38 38 38 37 37 36 36 37 39 40 42 44 46 47 47 47 47 47 48 49 50 51 52 54 59 64 66 67 69 72 77 79 78 76 75 73 72 72 71 68 64
35 36 36 36 36 36 37 37 38 40 43 45 47 49 51 52 53 53 53 53 53 52 52 53 55 60 66 67 68 72 76 78 76 73 72 71 70 68 67 65 63 60
40 42 43 42 41 41 41 42 43 44 46 47 49 51 54 58 61 64 65 64 62 59 57 56 58 64 70 71 71 76 79 77 72 68 66 63 62 61 59 57 55 54
49 51 51 50 49 49 48 48 48 48 49 51 53 55 57 61 66 71 73 75 75 73 69 66 65 68 73 74 75 78 79 76 68 58 51 48 46 45 42 37 34 31
58 57 57 56 55 55 55 55 54 53 54 55 57 59 60 63 67 70 70 69 71 74 77 76 74 73 75 76 76 77 77 75 63 42 27 24 24 22 21 18 16 15
66 66 66 63 60 58 58 59 59 59 59 59 59 59 58 60 64 67 66 62 59 61 68 75 76 75 75 74 72 70 71 71 59 34 15 12 14 14 15 15 15 16
66 66 66 62 59 56 55 54 55 57 58 60 60 58 54 51 54 58 59 59 57 57 60 68 74 74 73 68 61 55 56 58 53 37 23 19 18 17 17 16 17 17
55 57 58 57 54 50 47 45 43 43 46 51 56 58 54 47 43 44 47 51 54 57 58 61 65 66 64 57 46 39 37 38 37 31 25 22 20 18 16 15 15 16
42 46 49 51 49 45 42 38 34 32 33 35 40 47 49 46 41 35 34 36 40 46 51 54 56 55 51 44 36 30 26 25 24 22 19 17 16 15 14 13 13 14
29 32 36 38 38 35 33 29 27 27 26 25 28 32 33 35 35 32 30 29 28 29 34 40 43 43 42 41 37 31 26 24 22 20 16 14 12 11 11 12 12 12
17 18 21 24 25 25 24 20 18 18 18 19 21 22 22 21 21 22 23 24 24 23 23 26 29 29 30 32 34 33 32 31 30 29 28 25 22 19 16 15 14 13
15 14 15 16 18 19 18 16 15 14 15 14 13 15 16 14 13 16 15 15 21 25 21 20 24 25 22 20 20 21 21 23 25 28 30 30 27 24 21 18 15 14
19 17 17 16 17 19 18 15 13 12 12 12 12 12 11 9 13 21 22 26 38 41 28 17 19 25 27 24 21 20 20 18 17 18 22 23 19 17 18 17 15 14
23 21 21 19 19 20 19 16 14 13 12 10 9 9 9 7 8 12 18 28 38 37 27 17 12 17 28 32 33 36 39 35 27 26 31 30 24 25 31 30 26 25
Wind_Speed
15 15 15 14 14 14 13 13 12 12 11 11 11 11 11 11 11 11 11 12 12 12 12 11 11 11 11 11 10 10 10 10 10 10 10 10 10 11 11 11 12 12
15 15 15 15 15 15 15 15 14 13 13 12 12 12 12 12 12 12 12 11 12 12 13 13 12 12 11 11 11 11 11 11 11 12 11 11 11 11 12 12 12 13
16 15 15 15 16 16 16 16 16 15 15 14 13 13 12 12 12 13 13 13 13 13 13 13 14 14 13 13 13 13 13 13 13 14 14 14 13 13 13 13 13 14
16 16 16 16 16 16 16 16 17 17 17 16 15 15 14 13 13 13 14 14 14 14 15 15 15 15 15 15 15 15 15 15 15 16 16 15 15 15 15 15 14 15
17 18 17 17 17 17 16 16 16 17 18 18 17 17 16 16 15 15 14 15 15 16 16 16 16 17 17 17 17 16 16 17 17 17 17 17 17 17 17 16 16 16
18 19 19 19 19 18 18 17 17 17 17 17 18 18 18 18 18 17 17 16 16 17 17 17 17 18 18 19 19 19 18 18 18 18 18 18 18 18 18 18 17 17
19 19 20 20 21 21 20 20 19 19 18 18 19 19 19 20 20 20 20 19 18 18 18 18 18 18 19 20 20 21 21 20 20 19 19 19 19 19 19 19 19 19
20 20 20 21 22 22 23 23 23 22 22 22 22 22 22 22 22 22 22 22 22 21 20 20 19 19 19 20 21 21 21 22 21 21 21 20 20 20 20 20 20 21
21 21 21 22 22 23 24 24 25 25 26 25 25 25 24 23 23 23 23 24 24 24 22 21 21 20 20 20 21 21 22 22 22 22 22 22 21 21 21 21 21 22
21 22 22 22 22 23 23 24 25 26 26 26 26 26 26 25 25 25 25 25 25 25 25 24 23 22 22 22 22 22 22 22 22 23 23 23 23 23 23 23 22 23
22 22 22 23 23 23 23 24 24 25 26 26 27 27 27 27 26 26 26 26 26 26 26 25 25 24 24 24 23 23 22 22 22 22 22 23 23 24 24 24 23 23
23 23 23 23 24 24 24 24 24 25 25 26 26 27 27 27 27 27 27 27 27 27 27 27 27 26 25 25 25 24 24 23 22 22 22 23 23 24 24 24 23 23
23 23 23 23 23 24 24 24 25 25 25 25 25 26 26 27 27 27 27 27 27 28 28 28 28 28 27 26 25 25 25 24 23 22 22 23 23 23 23 23 22 22
22 22 23 23 23 23 24 24 24 24 24 25 25 26 26 26 27 28 28 28 28 28 28 28 29 29 28 27 26 26 25 23 23 22 22 22 21 21 21 21 21 22
23 24 24 25 25 25 25 25 25 25 25 25 26 26 26 27 27 28 28 28 29 28 28 28 29 29 28 28 27 25 23 23 22 22 22 21 20 19 19 20 20 20
25 25 26 26 27 27 27 27 27 27 26 27 27 27 27 27 27 27 28 29 29 29 29 29 28 29 29 28 26 24 23 22 23 22 21 20 18 18 18 18 18 18
25 25 26 26 27 27 28 28 28 28 28 27 27 27 28 28 28 28 28 29 30 30 30 30 29 28 28 27 25 23 22 22 23 22 21 19 17 17 17 17 17 17
24 25 26 27 27 27 28 28 28 29 29 28 27 27 27 28 28 29 29 29 30 31 31 31 30 29 28 26 24 23 22 22 23 22 21 20 18 17 17 18 18 19
26 27 28 29 29 29 28 28 28 28 28 28 28 28 28 28 29 29 30 30 30 31 31 31 30 29 28 26 25 23 23 23 23 23 23 22 21 20 20 20 21 21
27 28 30 31 31 31 30 30 29 28 28 27 27 28 28 28 29 29 30 30 31 31 31 31 30 29 28 27 26 25 24 24 24 24 24 24 24 24 23 23 23 23
28 28 30 31 32 32 32 31 31 30 30 29 28 28 28 28 29 29 30 30 31 31 31 31 31 30 29 28 28 27 26 25 25 26 26 26 27 27 26 26 25 26
29 29 29 30 31 32 32 32 32 31 31 31 30 29 29 29 29 29 29 30 31 31 31 32 32 32 32 31 31 30 29 29 28 29 29 29 30 30 29 28 28 29
33 32 32 31 32 32 32 33 33 32 32 32 32 32 32 31 31 31 31 31 32 32 33 33 33 34 34 34 34 34 33 33 33 33 33 33 34 34 33 32 31 31
36 36 36 36 35 35 35 34 34 34 34 34 34 34 34 34 34 33 34 34 34 34 34 34 35 36 36 36 36 37 37 36 36 36 36 36 37 37 37 36 35 35
38 38 38 38 38 38 37 37 36 36 36 37 37 37 37 37 36 35 35 35 35 36 37 37 37 37 38 38 39 40 40 39 39 38 37 38 39 39 39 38 38 38
39 39 39 39 39 39 39 38 38 38 38 39 40 40 40 39 38 37 36 37 37 38 38 39 39 39 39 39 40 41 41 42 41 40 39 39 40 40 39 38 38 38
Wind_Direction
356 355 353 351 349 348 348 348 346 345 345 346 348 349 350 351 351 350 351 352 353 354 355 357 358 359 359 358 356 355 354 354 353 351 349 346 344 345 346 348 350 351
359 358 356 355 353 352 351 350 348 346 342 340 338 337 335 334 332 330 330 332 334 335 337 338 339 340 341 342 341 340 340 339 338 336 334 333 331 330 329 331 332 333
357 356 356 356 356 356 355 354 352 351 350 347 344 339 334 328 322 318 317 317 317 317 319 321 323 324 326 327 327 328 329 329 329 327 326 325 324 323 321 321 322 322
354 354 353 353 355 355 355 354 351 350 349 349 347 344 340 335 328 322 317 313 310 308 307 308 309 310 312 314 315 317 319 320 320 319 319 319 318 317 316 315 315 315
351 351 351 350 350 350 350 349 348 346 344 343 342 341 339 337 335 332 326 319 314 309 306 303 302 301 302 303 305 306 308 310 312 312 313 313 313 311 310 309 310 310
349 349 348 347 346 346 345 344 342 340 337 336 335 334 332 332 332 332 331 327 321 316 310 306 303 301 300 300 300 300 300 301 302 303 305 307 308 307 305 304 305 305
346 345 345 344 342 342 341 339 337 335 333 332 330 329 328 328 328 329 329 328 325 321 315 310 307 304 303 301 300 299 298 298 298 298 298 299 301 302 302 302 302 302
340 341 342 341 340 338 337 336 334 333 333 331 330 329 328 326 326 326 326 325 325 323 318 313 309 307 305 303 301 299 298 298 298 298 298 297 297 297 297 298 300 300
334 335 337 337 336 335 334 333 334 333 332 331 330 328 327 326 325 324 323 323 322 322 320 316 312 309 306 304 302 301 300 299 299 299 298 298 296 295 295 295 297 298
330 331 332 333 332 332 332 332 332 332 330 330 329 328 328 327 325 323 322 321 320 319 319 318 315 312 310 307 305 304 304 303 301 299 297 297 296 295 295 295 295 296
328 329 330 331 330 330 331 332 332 331 330 330 329 329 329 328 326 324 321 320 319 318 317 317 316 315 314 311 310 308 307 305 303 299 296 295 295 295 295 296 297 297
327 329 330 330 330 331 331 331 331 330 330 330 329 329 329 327 325 323 321 319 318 318 317 317 317 317 316 313 312 311 309 307 305 301 298 296 296 296 296 297 298 299
326 327 328 329 329 330 330 330 330 330 329 329 329 329 328 326 324 322 321 320 318 317 317 316 316 316 315 314 313 312 310 308 306 304 302 299 298 297 298 299 300 302
327 328 329 329 330 330 330 330 329 329 329 329 329 328 327 326 324 323 321 319 317 316 315 314 314 315 315 314 314 312 310 308 308 307 305 303 301 301 302 303 305 306
333 333 333 332 332 331 330 330 330 330 329 328 327 326 325 325 324 323 321 319 316 314 313 312 313 314 315 314 313 311 308 308 309 309 307 306 305 305 306 307 308 309
334 334 333 332 331 330 329 328 327 327 326 325 324 323 323 324 324 324 323 322 320 317 314 313 313 313 315 315 313 310 307 308 309 309 307 306 306 307 308 308 309 310
328 328 328 328 326 325 324 323 323 322 322 322 322 322 322 322 323 324 324 324 323 321 319 316 314 314 316 316 313 309 307 307 308 307 306 304 305 306 307 307 309 310
320 320 321 322 322 321 320 320 319 319 320 320 320 320 320 321 321 322 323 324 325 324 322 320 318 317 318 317 313 308 305 304 304 304 303 303 303 303 304 305 307 308
316 316 316 317 318 318 318 317 317 317 317 318 318 318 318 318 318 318 319 321 323 323 323 322 320 319 318 316 312 309 305 302 300 300 300 299 299 299 300 302 303 305
313 313 314 314 314 315 315 315 314 314 314 314 315 315 315 315 315 315 315 316 318 319 320 320 318 317 315 314 311 308 306 303 301 299 297 296 297 297 298 300 302 303
311 311 311 310 310 311 311 311 312 313 312 312 312 311 311 311 310 310 311 311 311 313 314 314 313 312 310 309 306 304 302 301 299 298 296 295 294 295 296 298 300 301
310 308 307 306 306 307 307 309 310 310 310 310 310 309 309 309 308 307 307 307 307 307 307 307 307 306 305 304 302 300 298 297 296 295 294 294 293 292 293 295 297 299
312 311 308 306 305 304 305 306 307 307 307 306 306 307 306 306 306 306 305 304 303 302 302 302 301 301 300 300 299 297 296 295 295 294 294 293 293 292 293 294 295 295
315 313 311 309 307 305 304 304 304 304 304 304 303 303 303 303 304 303 302 302 300 299 298 298 297 297 296 296 296 295 295 294 294 293 293 294 293 294 295 296 295 295
313 312 311 310 308 306 303 303 303 304 304 303 302 302 301 301 301 300 300 299 298 297 297 297 296 295 294 294 294 294 294 293 292 292 292 293 294 295 296 296 296 296
309 309 308 307 306 305 303 302 302 303 303 302 301 300 299 299 299 298 297 296 294 295 296 296 296 295 293 292 292 293 293 293 293 292 292 294 295 296 296 296 295 294